Location: Unspecified
(43.4680°N, 87.1740°E)
Time: 05:50:57
(UTC+00:00)

NOSS 3-4 (A) - Pass Details

Date: 17 April 2021
Orbit: 872 x 1340 km, 63.4° (Epoch: 06 May)

Event Time Altitude Azimuth Distance (km) Brightness Sun altitude
Rises 22:38:57 0° 318° (NW) 3,878 6.4 -8.6°
Reaches altitude 10° 22:41:36 10° 312° (NW) 2,986 5.8 -8.1°
Maximum altitude 22:48:21 45° 243° (WSW) 1,588 4.2 -7.0°
Drops below altitude 10° 22:55:44 10° 174° (S) 3,270 6.1 -5.7°
Sets 22:58:47 0° 168° (SSE) 4,279 6.8 -5.2°
